Weather History for Washington, NC

Change the Weather History Date:

Wednesday, January 29, 2014

  Actual Average (KEWN) Record (KEWN)
Temperature  
Mean Temperature 20 °F 45 °F  
Max Temperature 24 °F 55 °F 79 °F (1957)
Min Temperature 14 °F 35 °F 19 °F (1963)
Degree Days  
Heating Degree Days 44 20  
Month to date heating degree days 604  
Since 1 July heating degree days 1598  
Cooling Degree Days 0 0  
Month to date cooling degree days 0  
Year to date cooling degree days 0  
Moisture  
Dew Point 9 °F    
Average Humidity 66    
Maximum Humidity 86    
Minimum Humidity 28    
Precipitation  
Precipitation 0.00 in 0.12 in 0.59 in (1966)
Month to date precipitation 3.74  
Year to date precipitation 3.74  
Snow  
Snow 0.00 in - - ()
Month to date snowfall  
Since 1 July snowfall  
Snow Depth -    
Sea Level Pressure  
Sea Level Pressure 30.28 in    
Wind  
Wind Speed 9 mph (NNW)    
Max Wind Speed 18 mph    
Max Gust Speed 22 mph    
Visibility 8 miles    
Events      
T = Trace of Precipitation, MM = Missing Value Source: NWS Daily Summary

Daily Weather History Graph

Daily Weather History Graph

Search for Another Location

Airport:

Trip Planner

Search our weather history database for the weather conditions in past years. The results will help you decide how hot, cold, wet, or windy it might be!

Date:

Astronomy

Jan. 29, 2014 Rise Set
Actual Time 7:10 AM EST 5:32 PM EST
Civil Twilight 6:43 AM EST 5:59 PM EST
Nautical Twilight 6:12 AM EST 6:30 PM EST
Astronomical Twilight 5:42 AM EST 7:00 PM EST
Moon 5:44 AM EST (1/29) 4:29 PM EST (1/29)
Length of Visible Light 11h 16m
Length of Day
10h 22m
Waning Crescent, 2% of the Moon is Illuminated
Jan 29
Waning Crescent
Jan 30
New
Feb 6
First Quarter
Feb 14
Full
Feb 22
Last Quarter

Hourly Weather History & Observations

Time (EST) Temp. Windchill Dew Point Humidity Pressure Visibility Wind Dir Wind Speed Gust Speed Precip Events Conditions
12:15 AM 19.6 °F 6.8 °F 16.0 °F 86% 30.16 in 3.0 mi North 12.7 mph 20.7 mph N/A   Overcast
12:35 AM 18.9 °F 3.3 °F 15.3 °F 86% 30.16 in 3.0 mi North 18.4 mph - N/A   Overcast
12:55 AM 18.9 °F 8.0 °F 15.3 °F 86% 30.16 in 4.0 mi NNW 9.2 mph 19.6 mph N/A   Overcast
1:15 AM 18.9 °F 6.5 °F 15.3 °F 86% 30.15 in 3.0 mi North 11.5 mph 19.6 mph N/A   Overcast
1:35 AM 18.3 °F 6.6 °F 14.7 °F 86% 30.16 in 2.5 mi North 10.4 mph - N/A   Overcast
1:55 AM 17.6 °F 6.4 °F 14.0 °F 86% 30.17 in 1.5 mi North 9.2 mph 18.4 mph N/A   Overcast
2:15 AM 17.6 °F 5.7 °F 14.0 °F 86% 30.15 in 1.5 mi North 10.4 mph - N/A   Overcast
2:35 AM 17.6 °F 5.7 °F 14.0 °F 86% 30.15 in 1.0 mi NNW 10.4 mph 18.4 mph N/A   Overcast
2:55 AM 17.6 °F 5.7 °F 14.0 °F 86% 30.14 in 1.5 mi NNW 10.4 mph 16.1 mph N/A   Overcast
3:15 AM 17.6 °F 4.3 °F 14.0 °F 86% 30.14 in 1.2 mi North 12.7 mph - N/A   Overcast
3:35 AM 17.6 °F 6.4 °F 14.0 °F 86% 30.16 in 1.2 mi North 9.2 mph - N/A   Overcast
3:55 AM 17.6 °F 4.3 °F 14.0 °F 86% 30.15 in 1.0 mi North 12.7 mph 16.1 mph N/A   Overcast
4:15 AM 17.6 °F 5.0 °F 14.0 °F 86% 30.14 in 1.5 mi NNW 11.5 mph - N/A   Overcast
4:35 AM 17.6 °F 6.4 °F 14.0 °F 86% 30.16 in 1.2 mi NNW 9.2 mph - N/A   Overcast
4:55 AM 17.6 °F 6.4 °F 14.0 °F 86% 30.15 in 1.0 mi North 9.2 mph - N/A   Overcast
5:15 AM 17.6 °F 6.4 °F 14.0 °F 86% 30.17 in 1.5 mi NNW 9.2 mph - N/A   Overcast
5:35 AM 17.6 °F 5.0 °F 14.0 °F 86% 30.17 in 1.2 mi North 11.5 mph 16.1 mph N/A   Overcast
5:55 AM 17.6 °F 6.4 °F 14.0 °F 86% 30.21 in 1.2 mi NNW 9.2 mph 18.4 mph N/A   Overcast
6:15 AM 17.6 °F 7.3 °F 14.0 °F 86% 30.19 in 4.0 mi NNW 8.1 mph - N/A   Overcast
6:35 AM 17.6 °F 8.2 °F 13.8 °F 85% 30.22 in 10.0 mi NNW 6.9 mph - N/A   Overcast
6:55 AM 17.6 °F 6.4 °F 13.6 °F 84% 30.21 in 10.0 mi North 9.2 mph - N/A   Overcast
7:15 AM 17.6 °F 6.4 °F 13.5 °F 84% 30.20 in 10.0 mi North 9.2 mph - N/A   Mostly Cloudy
7:35 AM 17.6 °F 7.3 °F 13.1 °F 83% 30.23 in 10.0 mi North 8.1 mph - N/A   Mostly Cloudy
7:55 AM 17.8 °F 7.5 °F 13.3 °F 83% 30.23 in 10.0 mi North 8.1 mph - N/A   Overcast
8:15 AM 18.0 °F 6.9 °F 13.3 °F 82% 30.23 in 10.0 mi North 9.2 mph - N/A   Overcast
8:35 AM 18.1 °F 5.0 °F 13.5 °F 82% 30.25 in 10.0 mi North 12.7 mph 16.1 mph N/A   Overcast
8:55 AM 18.1 °F 5.0 °F 13.1 °F 81% 30.27 in 10.0 mi North 12.7 mph 18.4 mph N/A   Scattered Clouds
9:15 AM 18.9 °F 8.0 °F 13.6 °F 80% 30.28 in 10.0 mi North 9.2 mph - N/A   Scattered Clouds
9:35 AM 20.1 °F 8.8 °F 14.7 °F 80% 30.29 in 10.0 mi NNW 10.4 mph - N/A   Mostly Cloudy
9:55 AM 20.1 °F 6.9 °F 13.5 °F 75% 30.29 in 10.0 mi North 13.8 mph 21.9 mph N/A   Overcast
10:15 AM 20.1 °F 8.8 °F 13.1 °F 74% 30.30 in 10.0 mi North 10.4 mph - N/A   Scattered Clouds
10:35 AM 20.1 °F 8.1 °F 12.7 °F 73% 30.31 in 10.0 mi North 11.5 mph - N/A   Clear
10:55 AM 20.1 °F 6.4 °F 11.3 °F 69% 30.32 in 10.0 mi North 15.0 mph 19.6 mph N/A   Clear
11:15 AM 20.3 °F 7.7 °F 9.7 °F 64% 30.32 in 10.0 mi North 12.7 mph 18.4 mph N/A   Clear
11:35 AM 21.0 °F 9.3 °F 9.0 °F 60% 30.32 in 10.0 mi NNW 11.5 mph - N/A   Clear
11:55 AM 21.2 °F 8.3 °F 8.1 °F 57% 30.30 in 10.0 mi North 13.8 mph - N/A   Clear
12:15 PM 22.6 °F 11.3 °F 7.3 °F 52% 30.30 in 10.0 mi North 11.5 mph - N/A   Clear
12:35 PM 22.6 °F 9.6 °F 5.9 °F 49% 30.29 in 10.0 mi North 15.0 mph - N/A   Clear
12:55 PM 22.6 °F 11.3 °F 4.1 °F 45% 30.30 in 10.0 mi North 11.5 mph - N/A   Clear
1:15 PM 22.6 °F 13.4 °F 2.3 °F 42% 30.29 in 10.0 mi North 8.1 mph - N/A   Clear
1:35 PM 23.0 °F 14.7 °F 3.2 °F 43% 30.30 in 10.0 mi North 6.9 mph - N/A   Clear
1:55 PM 23.7 °F 13.3 °F -0.0 °F 36% 30.30 in 10.0 mi NNW 10.4 mph - N/A   Clear
2:15 PM 23.9 °F 14.2 °F -4.2 °F 29% 30.30 in 10.0 mi North 9.2 mph - N/A   Clear
2:35 PM 23.9 °F 14.2 °F -2.4 °F 32% 30.31 in 10.0 mi North 9.2 mph - N/A   Clear
2:55 PM 23.9 °F 15.8 °F -5.3 °F 28% 30.31 in 10.0 mi North 6.9 mph - N/A   Clear
3:15 PM 23.9 °F 15.0 °F -2.9 °F 31% 30.30 in 10.0 mi NNW 8.1 mph - N/A   Clear
3:35 PM 23.9 °F 16.8 °F -3.5 °F 30% 30.30 in 10.0 mi NNW 5.8 mph - N/A   Clear
3:55 PM 23.9 °F 18.0 °F -1.7 °F 33% 30.31 in 10.0 mi NNW 4.6 mph - N/A   Clear
4:15 PM 24.3 °F 17.3 °F -1.7 °F 32% 30.32 in 10.0 mi NNW 5.8 mph - N/A   Clear
4:35 PM 24.3 °F 17.3 °F -3.3 °F 30% 30.32 in 10.0 mi NNW 5.8 mph - N/A   Clear
4:55 PM 23.9 °F 19.5 °F -0.4 °F 35% 30.33 in 10.0 mi NW 3.5 mph - N/A   Clear
5:15 PM 23.9 °F 18.0 °F 3.2 °F 41% 30.33 in 10.0 mi NNW 4.6 mph - N/A   Clear
5:35 PM 23.7 °F 19.3 °F 6.1 °F 47% 30.32 in 10.0 mi NNW 3.5 mph - N/A   Clear
5:55 PM 23.4 °F - 5.5 °F 47% 30.32 in 10.0 mi Calm Calm - N/A   Clear
6:15 PM 23.0 °F - 6.6 °F 50% 30.34 in 10.0 mi Calm Calm - N/A   Clear
6:35 PM 22.6 °F 16.5 °F 6.4 °F 50% 30.34 in 10.0 mi NNW 4.6 mph - N/A   Clear
6:55 PM 22.6 °F 18.0 °F 6.4 °F 50% 30.36 in 10.0 mi NW 3.5 mph - N/A   Clear
7:15 PM 22.6 °F - 5.9 °F 49% 30.37 in 10.0 mi Calm Calm - N/A   Clear
7:35 PM 22.6 °F - 6.8 °F 51% 30.36 in 10.0 mi Calm Calm - N/A   Clear
7:55 PM 22.6 °F - 7.5 °F 52% 30.36 in 10.0 mi Calm Calm - N/A   Clear
8:15 PM 22.6 °F - 12.6 °F 65% 30.37 in 10.0 mi Calm Calm - N/A   Clear
8:35 PM 20.7 °F - 12.9 °F 72% 30.37 in 10.0 mi Calm Calm - N/A   Clear
8:55 PM 20.8 °F - 12.4 °F 70% 30.37 in 10.0 mi Calm Calm - N/A   Clear
9:15 PM 21.4 °F - 10.2 °F 62% 30.36 in 10.0 mi Calm Calm - N/A   Clear
9:35 PM 21.2 °F - 10.2 °F 63% 30.37 in 10.0 mi Calm Calm - N/A   Clear
9:55 PM 20.1 °F - 9.9 °F 64% 30.38 in 10.0 mi Calm Calm - N/A   Clear
10:15 PM 18.1 °F - 9.9 °F 70% 30.39 in 10.0 mi Calm Calm - N/A   Clear
10:35 PM 17.6 °F - 11.1 °F 76% 30.40 in 10.0 mi Calm Calm - N/A   Clear
10:55 PM 17.6 °F - 11.1 °F 76% 30.40 in 10.0 mi Calm Calm - N/A   Clear
11:15 PM 17.6 °F - 12.0 °F 79% 30.39 in 10.0 mi Calm Calm - N/A   Clear
11:35 PM 17.6 °F - 10.4 °F 73% 30.38 in 10.0 mi Calm Calm - N/A   Clear
11:55 PM 14.7 °F - 9.9 °F 81% 30.38 in 10.0 mi Calm Calm - N/A   Clear